When you browse on this site, cookies collect data to enhance your experience and personalize the content and advertising you see.
Visit our Privacy Policy to learn more. By continuing to use the site, you agree to this use of cookies and data.
  • în România
  • Lista ţărilor
  • Pe 7 zile
  • Temperatura apei
  • Hartă satelitară
  • Meteo pe hartă
  • Widget-uri
  • user-avatar
    Intrare

    Meteo pe oră la Arrifana

    Astăzi, 21 Iulie, Duminică

    Timp Temperatura Precipitaţii Vânt Presiune Umiditate
    00:00 +16°C° 0 mm 2 m/s 747 mmHg 83%
    01:00 +16°C° 0 mm 1 m/s 747 mmHg 83%
    02:00 +16°C° 0 mm 1 m/s 747 mmHg 83%
    03:00 +16°C° 0 mm 1 m/s 747 mmHg 82%
    04:00 +16°C° 0 mm 1 m/s 747 mmHg 81%
    05:00 +18°C° 0 mm 1 m/s 747 mmHg 79%
    06:00 +20°C° 0 mm 1 m/s 747 mmHg 70%
    07:00 +23°C° 0 mm 2 m/s 747 mmHg 61%
    08:00 +26°C° 0 mm 2 m/s 748 mmHg 52%
    09:00 +28°C° 0 mm 3 m/s 748 mmHg 47%
    10:00 +30°C° 0 mm 3 m/s 747 mmHg 42%
    11:00 +33°C° 0 mm 4 m/s 747 mmHg 37%
    12:00 +32°C° 0 mm 4 m/s 747 mmHg 39%
    13:00 +32°C° 0 mm 5 m/s 747 mmHg 41%
    14:00 +30°C° 0 mm 6 m/s 747 mmHg 42%
    15:00 +30°C° 0 mm 5 m/s 746 mmHg 43%
    16:00 +29°C° 0 mm 5 m/s 746 mmHg 44%
    17:00 +28°C° 0 mm 4 m/s 746 mmHg 45%
    18:00 +26°C° 0 mm 3 m/s 746 mmHg 54%
    19:00 +24°C° 0 mm 3 m/s 747 mmHg 63%
    20:00 +20°C° 0 mm 2 m/s 747 mmHg 72%
    21:00 +20°C° 0 mm 2 m/s 747 mmHg 72%
    22:00 +21°C° 0 mm 1 m/s 747 mmHg 72%
    23:00 +21°C° 0 mm 1 m/s 747 mmHg 72%

    Mâine, 22 Iulie, Luni

    Timp Temperatura Precipitaţii Vânt Presiune Umiditate
    00:00 +21°C° 0 mm 1 m/s 746 mmHg 72%
    01:00 +20°C° 0 mm 1 m/s 746 mmHg 73%
    02:00 +20°C° 0 mm 1 m/s 746 mmHg 73%
    03:00 +20°C° 0 mm 1 m/s 746 mmHg 73%
    04:00 +20°C° 0 mm 1 m/s 746 mmHg 72%
    05:00 +18°C° 0 mm 0 m/s 746 mmHg 72%
    06:00 +23°C° 0 mm 1 m/s 746 mmHg 63%
    07:00 +27°C° 0 mm 1 m/s 746 mmHg 53%
    08:00 +30°C° 0 mm 1 m/s 746 mmHg 44%
    09:00 +31°C° 0 mm 2 m/s 746 mmHg 41%
    10:00 +32°C° 0 mm 2 m/s 746 mmHg 37%
    11:00 +35°C° 0 mm 3 m/s 746 mmHg 34%
    12:00 +34°C° 0 mm 3 m/s 745 mmHg 35%
    13:00 +34°C° 0 mm 3 m/s 745 mmHg 35%
    14:00 +34°C° 0 mm 3 m/s 745 mmHg 36%
    15:00 +33°C° 0 mm 3 m/s 745 mmHg 39%
    16:00 +31°C° 0 mm 3 m/s 744 mmHg 42%
    17:00 +29°C° 0 mm 2 m/s 744 mmHg 45%
    18:00 +27°C° 0 mm 2 m/s 744 mmHg 56%
    19:00 +24°C° 0 mm 2 m/s 745 mmHg 67%
    20:00 +21°C° 0 mm 1 m/s 745 mmHg 79%
    21:00 +21°C° 0 mm 1 m/s 745 mmHg 78%
    22:00 +21°C° 0 mm 1 m/s 745 mmHg 78%
    23:00 +21°C° 0 mm 1 m/s 745 mmHg 78%

    Poimâine, 23 Iulie, Marţi

    Timp Temperatura Precipitaţii Vânt Presiune Umiditate
    00:00 +20°C° 0 mm 1 m/s 744 mmHg 79%
    01:00 +20°C° 0 mm 1 m/s 744 mmHg 80%
    02:00 +20°C° 0 mm 1 m/s 744 mmHg 81%
    03:00 +20°C° 0 mm 1 m/s 744 mmHg 83%
    04:00 +19°C° 0 mm 1 m/s 744 mmHg 85%
    05:00 +19°C° 0 mm 1 m/s 744 mmHg 88%
    06:00 +21°C° 0 mm 1 m/s 744 mmHg 80%
    07:00 +23°C° 0 mm 1 m/s 744 mmHg 72%
    08:00 +25°C° 0 mm 1 m/s 745 mmHg 64%
    09:00 +27°C° 0 mm 2 m/s 745 mmHg 59%
    10:00 +28°C° 0 mm 2 m/s 745 mmHg 54%
    11:00 +29°C° 0 mm 3 m/s 745 mmHg 48%
    12:00 +29°C° 0 mm 3 m/s 745 mmHg 48%
    13:00 +29°C° 0 mm 3 m/s 744 mmHg 48%
    14:00 +29°C° 0 mm 3 m/s 744 mmHg 47%
    15:00 +28°C° 0 mm 3 m/s 744 mmHg 50%
    16:00 +27°C° 0 mm 3 m/s 744 mmHg 53%
    17:00 +26°C° 0 mm 3 m/s 743 mmHg 56%
    18:00 +24°C° 0 mm 3 m/s 744 mmHg 63%
    19:00 +21°C° 0 mm 2 m/s 744 mmHg 71%
    20:00 +19°C° 0 mm 2 m/s 745 mmHg 78%
    21:00 +19°C° 0 mm 2 m/s 744 mmHg 78%
    22:00 +19°C° 0 mm 1 m/s 744 mmHg 78%
    23:00 +19°C° 0 mm 1 m/s 744 mmHg 77%

    24 Iulie, Miercuri

    Timp Temperatura Precipitaţii Vânt Presiune Umiditate
    00:00 +19°C° 0 mm 1 m/s 744 mmHg 76%
    01:00 +18°C° 0 mm 1 m/s 743 mmHg 74%
    02:00 +18°C° 0 mm 1 m/s 743 mmHg 72%
    03:00 +18°C° 0 mm 1 m/s 743 mmHg 71%
    04:00 +16°C° 0 mm 0 m/s 743 mmHg 70%
    05:00 +17°C° 0 mm 0 m/s 743 mmHg 69%
    06:00 +21°C° 0 mm 1 m/s 743 mmHg 60%
    07:00 +24°C° 0 mm 1 m/s 743 mmHg 52%
    08:00 +27°C° 0 mm 1 m/s 743 mmHg 44%
    09:00 +28°C° 0 mm 2 m/s 743 mmHg 41%
    10:00 +30°C° 0 mm 2 m/s 743 mmHg 37%
    11:00 +31°C° 0 mm 3 m/s 742 mmHg 34%
    12:00 +30°C° 0 mm 3 m/s 742 mmHg 35%
    13:00 +30°C° 0 mm 3 m/s 742 mmHg 36%
    14:00 +30°C° 0 mm 3 m/s 741 mmHg 38%
    15:00 +28°C° 0 mm 3 m/s 741 mmHg 43%
    16:00 +27°C° 0 mm 2 m/s 741 mmHg 48%
    17:00 +26°C° 0 mm 2 m/s 741 mmHg 53%
    18:00 +24°C° 0 mm 2 m/s 742 mmHg 63%
    19:00 +22°C° 0 mm 1 m/s 742 mmHg 74%
    20:00 +20°C° 0 mm 1 m/s 742 mmHg 85%
    21:00 +20°C° 0 mm 1 m/s 742 mmHg 86%
    22:00 +20°C° 0 mm 1 m/s 742 mmHg 87%
    23:00 +18°C° 0 mm 2 m/s 742 mmHg 88%

    25 Iulie, Joi

    Timp Temperatura Precipitaţii Vânt Presiune Umiditate
    00:00 +19°C° 0 mm 2 m/s 742 mmHg 87%
    01:00 +19°C° 0 mm 2 m/s 742 mmHg 87%
    02:00 +20°C° 0 mm 2 m/s 742 mmHg 86%
    03:00 +20°C° 0 mm 2 m/s 742 mmHg 87%
    04:00 +20°C° 0 mm 2 m/s 742 mmHg 88%
    05:00 +19°C° 0 mm 3 m/s 743 mmHg 90%
    06:00 +20°C° 0.3 mm 3 m/s 743 mmHg 87%
    07:00 +20°C° 0.3 mm 2 m/s 743 mmHg 84%
    08:00 +21°C° 0.3 mm 2 m/s 744 mmHg 81%
    09:00 +21°C° 0.2 mm 2 m/s 744 mmHg 81%
    10:00 +21°C° 0.2 mm 2 m/s 744 mmHg 81%
    11:00 +21°C° 0.2 mm 2 m/s 744 mmHg 81%
    12:00 +22°C° 0 mm 3 m/s 745 mmHg 70%
    13:00 +25°C° 0 mm 3 m/s 745 mmHg 60%
    14:00 +26°C° 0 mm 4 m/s 745 mmHg 50%
    15:00 +25°C° 0 mm 4 m/s 745 mmHg 52%
    16:00 +23°C° 0 mm 4 m/s 745 mmHg 53%
    17:00 +22°C° 0 mm 4 m/s 745 mmHg 55%
    18:00 +20°C° 0 mm 4 m/s 746 mmHg 64%
    19:00 +19°C° 0 mm 3 m/s 746 mmHg 72%
    20:00 +17°C° 0 mm 3 m/s 746 mmHg 81%
    21:00 +16°C° 0 mm 3 m/s 747 mmHg 82%
    22:00 +16°C° 0 mm 3 m/s 747 mmHg 84%
    23:00 +16°C° 0 mm 3 m/s 747 mmHg 86%

    26 Iulie, Vineri

    Timp Temperatura Precipitaţii Vânt Presiune Umiditate
    00:00 +14°C° 0 mm 3 m/s 747 mmHg 86%
    01:00 +14°C° 0 mm 3 m/s 747 mmHg 87%
    02:00 +14°C° 0 mm 3 m/s 747 mmHg 87%
    03:00 +14°C° 0 mm 3 m/s 747 mmHg 87%
    04:00 +14°C° 0 mm 2 m/s 747 mmHg 87%
    05:00 +14°C° 0 mm 2 m/s 747 mmHg 88%
    06:00 +17°C° 0 mm 3 m/s 748 mmHg 75%
    07:00 +19°C° 0 mm 3 m/s 748 mmHg 63%
    08:00 +22°C° 0 mm 3 m/s 748 mmHg 51%
    09:00 +23°C° 0 mm 4 m/s 748 mmHg 46%
    10:00 +25°C° 0 mm 5 m/s 748 mmHg 40%
    11:00 +27°C° 0 mm 5 m/s 748 mmHg 35%
    12:00 +26°C° 0 mm 6 m/s 748 mmHg 37%
    13:00 +26°C° 0 mm 6 m/s 747 mmHg 39%
    14:00 +26°C° 0 mm 6 m/s 747 mmHg 42%
    15:00 +23°C° 0 mm 6 m/s 747 mmHg 46%
    16:00 +22°C° 0 mm 6 m/s 747 mmHg 50%
    17:00 +21°C° 0 mm 5 m/s 747 mmHg 54%
    18:00 +19°C° 0 mm 5 m/s 747 mmHg 63%
    19:00 +17°C° 0 mm 4 m/s 748 mmHg 73%
    20:00 +15°C° 0 mm 4 m/s 748 mmHg 82%
    21:00 +16°C° 0 mm 3 m/s 748 mmHg 82%
    22:00 +14°C° 0 mm 3 m/s 748 mmHg 82%
    23:00 +14°C° 0 mm 3 m/s 748 mmHg 82%
    Arată mai mult